Showing default

COSMOS 203, 3129

Orbit data source: Space-Track

COSMOS 203, 3129 is a payload satellite owned by OKB-10 (CIS) in LEO that was launched on Tue, 20 Feb 1968 UTC via a KOSMOS 11K65M launch vehicle from the Plesetsk Missile And Space Complex (PKMTR). Payload-class satellites include a variety of spacecraft equipped with specific instruments for various scientific and technological missions. These include communications satellites like Starlink; space stations such as the ISS; scientific satellites like the Hubble; Earth observation satellites from companies like Planet Labs, Umbra, and HawkEye 360; GPS; miniature CubeSats for education and research; and military/defense satellites.

Loading next visibility...
Identifier
3129, 1968-011A
Orbit
LEO
Country
Flag of CISCIS
Related business
Manufacturer
OKB-10
Mission
Spacecraft
Bus & Motor
KAUR-1 11F621, Unknown motor
Mass
800 kg wet, 800 kg dry
Launch date (UTC)
1968-02-20 (58 years ago)
Launch vehicle
KOSMOS 11K65M
Launch site
Plesetsk Missile And Space Complex (PKMTR)
Object type
Payload
Rocket body
Debris
Shape & HBR
Unknown
Radar Cross Section
Large (>1 m²)

Expand to show TLE details & history
Last TLE update: 7 hours ago

TLE from 7 hours ago
0 COSMOS 203
1  3129U 68011A   26036.77675156  .00000193  00000-0  53960-3 0  9991
2  3129  74.0525 291.1413 0012114 157.7502 267.9202 13.18300123788662
Epoch: 2026-02-05T18:38Z
TLE epoch observation values (Epoch: 2026-02-05T18:38:31.334Z)
Latitude
61.16246°
Longitude
-93.32552°
Altitude
1,201.646 km
Speed
7.259 km/s
True Right ascension
21h 28m 54s
True Declination
61° 01' 32"
Sunlit
Object was in daylight at epoch
Visualization orbit readout
Latitude
Unknown
Longitude
Unknown
Altitude
Unknown
Speed
Unknown
Apparent Right ascension
Unknown
Apparent Declination
Unknown
Sunlit
N/A
Visualization observer readout
Local Sidereal Time
03:54:12
Azimuth
Unknown
Elevation
Unknown
Doppler factor
Unknown
Orbital elements
Apogee altitude
1,198.141 km
Perigee altitude
1,179.808 km
Semi-major axis
7,567.112 km
Eccentricity
0.00121
Inclination
74.0525°
RAAN
291.1413°
Arg. of periapsis
157.7502°
True anomaly
267.78148°
Mean anomaly
267.9202°
Eccentric anomaly
267.85084°
Mean motion
3.29722 °/min
Orbital period
109.18 mins
BSTAR
0.0005396
Loading maneuver chart data...
Computing Atmospheric mass density...
Loading historical data...
Loading historical data...
Loading historical data...
Loading historical data...
Loading historical data...
Loading historical data...
Loading historical data...
Other satellites on launch #11 in the year 1968 (1968-02-20 UTC)

Documentation

Showing up to 5 results
|